TimeMDT,TemperatureF,Dew PointF,Humidity,Sea Level PressureIn,VisibilityMPH,Wind Direction,Wind SpeedMPH,Gust SpeedMPH,PrecipitationIn,Events,Conditions,WindDirDegrees,DateUTC
12:53 AM,53.1,45.0,74,29.99,10.0,South,5.8,-,N/A,,Clear,180,2013-09-13 06:53:00
1:53 AM,53.1,45.0,74,29.98,10.0,South,8.1,-,N/A,,Clear,190,2013-09-13 07:53:00
2:53 AM,55.9,45.0,67,29.96,10.0,South,9.2,-,N/A,,Clear,180,2013-09-13 08:53:00
3:53 AM,54.0,44.1,69,29.96,10.0,SW,4.6,-,N/A,,Clear,220,2013-09-13 09:53:00
4:53 AM,52.0,44.1,74,29.96,10.0,South,8.1,-,N/A,,Clear,180,2013-09-13 10:53:00
5:53 AM,52.0,45.0,77,29.96,10.0,South,9.2,-,N/A,,Clear,190,2013-09-13 11:53:00
6:53 AM,51.1,44.1,77,29.96,10.0,SSW,5.8,-,N/A,,Clear,200,2013-09-13 12:53:00
7:53 AM,48.0,44.1,86,29.98,10.0,SSW,5.8,-,N/A,,Clear,200,2013-09-13 13:53:00
8:53 AM,57.0,46.0,67,29.95,10.0,SW,9.2,-,N/A,,Overcast,220,2013-09-13 14:53:00
9:53 AM,60.1,48.0,64,29.94,10.0,WSW,8.1,-,N/A,,Overcast,240,2013-09-13 15:53:00
10:53 AM,64.9,46.9,52,29.93,10.0,SW,8.1,-,N/A,,Clear,220,2013-09-13 16:53:00
11:53 AM,70.0,46.9,44,29.89,10.0,SW,4.6,-,N/A,,Clear,220,2013-09-13 17:53:00
12:53 PM,73.9,46.0,37,29.84,10.0,SW,4.6,-,N/A,,Clear,220,2013-09-13 18:53:00
1:53 PM,75.9,46.0,35,29.81,10.0,SW,4.6,-,N/A,,Clear,220,2013-09-13 19:53:00
2:53 PM,75.0,46.0,36,29.79,10.0,East,4.6,-,N/A,,Clear,100,2013-09-13 20:53:00
3:53 PM,77.0,43.0,30,29.77,10.0,Calm,Calm,-,N/A,,Clear,0,2013-09-13 21:53:00
4:53 PM,79.0,44.1,29,29.76,10.0,NE,3.5,-,N/A,,Partly Cloudy,50,2013-09-13 22:53:00
5:53 PM,72.0,46.0,40,29.81,10.0,Variable,5.8,-,N/A,,Overcast,0,2013-09-13 23:53:00
6:24 PM,66.2,50.0,56,29.97,2.5,SSW,11.5,16.1,0.05,Rain,Light Rain,200,2013-09-14 00:24:00
6:31 PM,64.4,50.0,59,29.97,10.0,West,15.0,24.2,0.05,Rain,Light Rain,260,2013-09-14 00:31:00
6:41 PM,62.6,51.8,68,29.97,10.0,West,15.0,24.2,0.05,,Scattered Clouds,280,2013-09-14 00:41:00
6:53 PM,63.0,52.0,67,29.86,10.0,WNW,11.5,-,0.05,,Partly Cloudy,290,2013-09-14 00:53:00
7:53 PM,61.0,51.1,70,29.88,10.0,WSW,4.6,-,N/A,,Scattered Clouds,250,2013-09-14 01:53:00
8:53 PM,61.0,48.9,64,29.87,10.0,NNE,3.5,-,N/A,,Overcast,20,2013-09-14 02:53:00
9:53 PM,59.0,52.0,78,29.87,10.0,SE,4.6,-,N/A,,Overcast,130,2013-09-14 03:53:00
10:53 PM,59.0,51.1,75,29.87,10.0,Calm,Calm,-,N/A,,Overcast,0,2013-09-14 04:53:00
11:53 PM,57.9,53.1,84,29.86,9.0,SE,5.8,-,0.01,Rain,Light Rain,130,2013-09-14 05:53:00